Location: Trebic
(49.2170°N, 15.8830°E)
Time: 09:36:33
(UTC+02:00)

Transit 4A - Pass Details

Date: 28 July 2019
Orbit: 863 x 981 km, 66.8° (Epoch: 24 August)

Event Time Altitude Azimuth Distance (km) Brightness Sun altitude
Exits shadow 02:31:46 15° 253° (WSW) 2,396 9.7 -18.9°
Maximum altitude 02:36:46 41° 319° (NW) 1,385 9.0 -18.6°
Drops below altitude 10° 02:42:49 10° 29° (NNE) 2,735 11.6 -18.2°
Sets 02:45:34 0° 36° (NE) 3,676 12.6 -18.0°
